Peawanuck Airport
CYPO : now visible

Airfield :











YOU CAN JOIN US ON...

 
LOGIN :

Register | Disclaimer

   EN    FR    IT 

 









Legend :    VFR   Marginal VFR   IFR   Intensive IFR   Very Intensive IFR
Visi :
Ceiling :
>= 8 km
>= 3000ft
5 to 8 km
1000 to 3000 ft
1500m to 5 km
500 to 1000 ft
800 to 1500m
200 to 500 ft
< 800m
< 200 ft
Symbols :   Thunderstorms  Fog  Heavy snow  Heavy precipitations  Wind > 20 kt






- Airport Elevation : 173 ft
- IATA code : YPO


CYPO - Peawanuck

CURRENT METAR :
  • 250500Z AUTO 08008KT 050V110 9SM OVC010 M01/M03 A3006 RMK SLP183

EXPIRED METARs :
  • 250400Z AUTO 06006KT 030V100 9SM OVC010 M01/M03 A3006 RMK SLP185
  • 250316Z AUTO 07005KT 030V100 9SM OVC008 M01/M03 A3006 RMK SLP186
  • 250256Z AUTO 06005KT 030V120 9SM -SN OVC010 M01/M02 A3007 RMK SLP188
  • 250200Z AUTO 07006KT 030V100 9SM OVC010 M01/M03 A3006 RMK SLP186
  • 250100Z AUTO 05007KT 9SM BKN012 00/M02 A3007 RMK SLP188
  • 250057Z AUTO 05006KT 9SM BKN012 00/M02 A3007 RMK SLP188
  • 250000Z AUTO 05005KT 010V090 9SM FEW014 02/M02 A3008 RMK SLP191

TAF N/A
CZWG FIR / North America



MET'MAP, your aeronautical weather chart ! - Copyright ORBIFLY December 2007 - Disclaimer

ORBIFLY MET'MAP TEAM :

Programming & Development : Alexandra Zaïnal
Original concept : Baudouin d'Aumeries
Technical & hardware support : Manuel Goepfert
Assistance : Marc-Olivier Méhu




SOURCES & CREDITS :

   NOAA       Earth
Advisory